Temperature
18 18 18 18 18 18 18 18 18 18 17 17 18 17 17 18 18 18 18 18 17 17 17 17 17 17 17 17 17 16 16 16 16 16 16 16 16 16 16 16 16 16 16
18 18 18 18 18 17 17 17 17 17 17 17 17 17 17 17 17 17 17 17 17 17 17 17 17 17 17 17 17 16 16 16 16 16 16 16 16 16 16 16 16 16 16
18 18 18 18 18 17 17 17 17 17 17 17 17 17 17 17 17 17 17 17 17 17 17 17 17 17 17 17 17 16 16 16 16 16 16 16 16 16 16 16 16 15 15
18 18 17 18 17 17 17 17 17 17 17 17 17 17 17 17 17 17 17 17 17 17 17 17 17 17 16 16 16 16 16 16 16 16 16 16 16 16 15 15 15 15 15
18 18 17 17 17 17 17 17 17 17 17 17 17 17 17 17 17 17 17 17 17 17 17 17 17 16 16 16 16 16 16 16 16 16 16 16 16 15 15 15 15 15 15
18 18 17 17 17 17 17 17 17 17 17 17 17 17 17 17 17 17 17 17 17 17 17 16 16 16 16 16 16 16 16 16 16 16 16 15 15 15 15 15 15 15 15
18 18 17 17 17 17 17 17 17 17 17 17 17 17 17 17 17 17 17 17 17 17 17 16 16 16 16 16 16 16 16 16 15 15 15 15 15 15 15 15 15 15 15
18 18 17 17 17 17 17 17 17 17 17 17 17 17 17 17 17 17 17 17 17 17 17 16 16 16 16 16 16 16 15 15 15 15 15 15 15 15 15 15 15 15 15
18 18 17 17 17 17 17 17 17 17 17 17 17 17 17 17 17 17 17 17 17 17 17 17 16 16 16 16 16 16 15 15 15 15 15 15 15 15 15 15 15 15 14
17 17 17 17 17 17 17 17 17 17 17 17 17 17 17 17 17 17 17 17 17 17 17 17 17 16 16 16 16 16 15 15 15 15 15 15 15 15 15 14 14 14 14
17 17 17 17 17 17 17 17 17 17 17 17 17 17 17 17 17 17 17 17 17 17 17 17 17 16 16 16 16 16 16 15 15 15 15 15 15 15 15 14 14 14 14
17 17 17 17 17 17 17 17 17 17 17 17 17 17 17 17 17 17 17 17 17 17 17 17 17 17 16 16 16 16 16 15 15 15 15 15 15 15 14 14 14 14 14
17 17 17 17 17 17 17 17 17 17 17 17 17 17 17 17 17 17 17 17 17 17 17 17 17 17 17 16 16 16 16 15 15 15 15 15 15 15 14 14 14 14 14
18 17 17 17 17 17 17 16 16 16 17 16 16 17 16 17 17 17 17 17 17 17 17 17 17 17 17 16 16 16 16 16 15 15 15 15 15 15 14 14 14 14 14
17 17 17 17 17 17 17 16 16 16 16 16 16 16 16 16 16 17 17 17 17 17 17 17 17 17 17 16 16 16 16 16 15 15 15 15 15 14 14 14 14 14 14
17 17 17 17 17 16 16 16 16 16 16 16 16 16 16 16 16 16 16 16 16 16 16 17 16 16 16 16 16 16 16 16 16 15 15 15 15 14 14 14 14 14 14
17 17 17 17 16 16 16 16 16 16 16 16 16 16 16 16 16 16 16 16 16 16 16 16 16 16 16 16 16 16 16 16 15 15 15 15 15 15 14 14 14 14 14
17 17 17 17 16 16 16 16 16 16 16 16 16 16 16 16 16 16 16 16 16 16 16 16 16 16 16 16 16 16 16 15 15 15 15 15 15 15 14 14 14 14 14
17 17 17 17 16 16 16 16 16 16 16 16 16 16 16 16 15 15 15 15 15 15 15 15 16 16 16 16 15 15 15 15 15 15 15 15 15 15 14 14 14 14 14
17 17 16 16 16 16 16 16 16 16 16 16 16 15 15 15 15 15 15 15 15 15 15 15 15 15 15 15 15 15 15 15 15 15 15 15 15 14 14 14 14 14 14
16 16 16 16 16 16 16 16 16 16 16 16 15 15 15 15 15 15 15 15 15 15 15 15 15 15 15 15 15 15 14 15 15 15 15 15 14 14 14 14 14 14 14
16 16 16 16 16 16 16 16 16 16 16 15 15 15 15 15 15 15 15 15 15 15 15 15 15 14 15 14 14 14 14 14 14 14 14 14 14 14 14 14 14 14 14
16 16 16 16 16 16 16 16 16 16 16 16 15 15 15 15 15 15 15 15 15 14 14 14 14 14 14 14 14 14 14 13 13 14 13 13 14 14 14 14 13 13 13
16 16 16 16 16 16 16 16 16 16 16 15 15 15 15 15 15 15 15 14 14 14 14 14 14 14 14 14 13 13 13 13 13 13 13 13 13 13 13 13 13 13 13
16 16 16 16 16 16 16 16 15 15 15 15 15 15 15 15 15 14 14 14 14 14 14 14 14 14 13 13 13 13 13 12 13 13 13 12 13 13 13 13 13 13 12
16 16 16 16 16 16 16 15 15 15 15 15 15 14 14 14 14 14 14 14 14 14 14 13 13 13 13 13 12 12 12 12 12 12 12 12 12 11 12 12 12 12 12
Wind_Speed
6 7 6 7 6 6 5 4 3 3 3 3 6 9 9 11 12 12 12 13 14 13 13 12 11 11 10 10 9 9 9 9 9 8 8 8 8 8 8 7 7 7 7
9 7 5 5 6 6 6 5 4 3 2 3 4 7 10 11 12 12 12 13 13 13 13 12 11 11 10 10 9 9 9 9 9 9 8 8 8 8 7 7 7 7 7
12 8 5 4 6 7 7 5 3 3 3 2 3 5 8 9 10 12 13 12 13 13 13 12 11 11 10 10 10 9 9 9 9 9 9 9 8 9 8 8 8 8 8
14 9 5 4 7 7 6 3 3 3 2 2 2 2 4 6 8 11 12 12 12 11 12 13 12 11 10 10 10 9 9 9 9 10 10 10 9 10 10 9 9 9 9
15 10 6 6 8 6 4 4 3 3 2 2 2 2 3 4 5 9 9 12 13 12 12 13 13 13 11 10 10 10 9 9 9 9 9 10 9 10 11 11 11 11 11
14 11 7 7 8 5 4 3 3 2 2 2 1 1 1 2 4 5 7 9 11 12 13 12 12 13 13 12 11 10 10 10 10 10 10 10 10 10 10 11 11 12 12
14 10 6 5 5 5 5 5 3 3 1 2 3 2 3 1 1 3 5 5 7 11 13 13 13 12 11 13 13 12 10 10 10 10 10 10 10 10 10 10 11 12 12
13 11 7 6 6 5 5 5 4 3 1 2 3 3 2 3 3 1 3 5 6 8 10 12 13 13 12 11 12 13 12 10 10 10 10 9 9 9 10 10 10 11 11
12 10 9 7 6 6 6 5 5 5 3 1 2 4 4 3 2 3 2 3 5 5 5 9 12 14 14 13 13 13 13 12 10 10 9 9 9 9 9 9 9 10 10
11 11 10 8 7 5 6 6 5 4 5 3 1 1 3 4 3 1 3 2 3 5 6 6 9 13 14 14 15 15 14 13 12 11 10 9 9 9 9 9 9 9 9
9 10 10 8 7 6 6 6 5 5 4 4 3 2 1 1 2 3 2 3 2 3 4 5 7 10 14 15 15 16 16 15 14 13 11 10 9 9 9 9 9 9 10
7 8 9 7 7 6 6 6 6 6 5 4 4 3 3 3 3 3 3 3 3 4 3 4 5 8 12 15 16 17 18 17 16 14 13 12 11 10 10 9 9 10 10
6 9 8 7 6 6 6 6 6 6 5 5 5 3 3 3 3 4 3 2 2 3 2 3 4 8 11 14 16 18 18 19 18 17 15 14 13 12 11 11 10 10 10
8 9 9 8 7 7 7 6 5 5 5 5 5 4 3 3 3 4 4 4 1 2 2 4 2 5 9 12 16 18 17 20 20 19 17 16 15 14 14 14 13 12 12
8 9 9 9 8 8 7 7 5 5 5 5 5 4 3 2 2 2 3 4 4 3 4 4 3 3 7 10 14 15 16 18 20 20 19 18 18 17 17 16 16 16 15
9 10 9 9 8 7 7 6 5 5 6 5 4 4 3 2 1 2 2 2 3 5 4 4 4 3 4 7 11 14 16 17 19 20 21 21 20 20 20 19 19 18 18
9 10 10 9 9 8 7 7 6 6 7 5 4 5 5 4 2 1 1 2 2 3 4 3 2 2 2 3 4 10 12 13 15 19 21 22 23 23 23 22 22 22 21
9 10 10 9 9 8 8 8 8 7 7 7 6 5 5 4 3 2 2 2 2 3 4 4 2 2 3 4 3 4 7 10 13 16 20 22 23 24 24 24 24 24 23
9 9 10 10 10 9 9 9 8 8 8 8 7 7 6 5 5 4 3 3 2 2 3 3 3 2 3 2 2 3 4 5 9 12 15 18 21 23 24 24 25 25 24
10 10 10 10 10 9 9 9 8 8 7 7 7 7 7 7 7 6 5 5 4 3 2 2 3 3 3 3 1 3 4 4 5 8 11 13 15 18 21 22 23 23 24
10 9 9 9 9 8 9 9 8 8 7 7 6 7 7 9 10 8 6 6 5 4 3 3 3 2 3 2 3 3 4 5 5 4 4 6 7 8 12 17 19 22 23
8 9 9 9 9 8 10 12 10 7 7 7 7 7 6 7 9 11 11 10 8 6 6 4 4 4 5 4 3 4 4 3 4 3 3 6 4 6 8 12 16 19 21
8 8 8 8 8 8 10 11 12 8 7 7 7 6 6 6 7 6 8 9 9 10 10 7 6 7 6 6 4 4 4 5 6 4 2 5 4 6 7 12 16 18 19
7 7 7 7 6 5 7 9 9 7 5 6 6 6 6 6 5 6 5 5 6 7 9 8 8 9 8 6 6 6 5 5 5 5 4 5 5 5 6 9 14 16 17
6 5 5 5 5 4 5 8 8 4 4 5 4 5 5 5 5 7 5 6 6 7 9 11 12 12 12 11 7 3 3 3 6 5 4 4 5 5 5 7 12 15 15
6 5 4 4 4 3 3 6 7 4 4 3 3 2 3 3 3 4 5 5 6 6 4 4 5 7 8 8 9 7 6 6 5 5 4 4 4 3 4 5 5 8 10
Wind_Direction
157 160 161 166 171 168 158 151 152 129 122 127 133 138 144 153 159 161 169 171 172 172 171 171 171 171 171 171 171 170 171 171 171 170 168 166 165 165 165 165 164 161 158
163 162 160 163 173 173 169 166 161 145 141 137 132 143 149 158 167 169 172 177 181 179 179 180 180 180 181 182 184 183 183 182 182 184 184 181 181 180 180 180 179 177 176
163 159 158 164 173 167 153 146 138 122 124 121 119 139 153 162 168 171 176 180 186 188 187 187 188 190 191 193 194 195 195 195 194 195 197 197 196 194 194 195 195 196 196
165 157 154 166 170 157 145 134 126 115 108 118 134 156 157 168 171 177 180 185 188 191 195 194 195 195 197 199 199 199 200 201 202 205 206 207 209 210 209 208 207 209 209
163 158 159 165 161 144 139 150 132 137 138 141 164 167 166 171 179 184 187 191 194 195 196 200 201 202 204 206 208 209 208 208 209 211 211 212 215 218 220 219 218 218 219
164 159 160 159 152 142 142 140 138 136 148 157 136 116 169 180 180 188 192 194 196 199 200 201 204 209 211 212 214 217 218 217 217 218 219 220 221 223 226 226 226 226 226
165 160 159 153 151 154 159 153 140 139 138 132 90 41 0 355 190 197 194 186 197 203 200 202 205 207 213 218 220 219 221 220 221 221 222 223 224 226 229 231 233 233 232
168 170 160 164 158 152 154 155 144 139 146 141 130 105 27 347 332 245 201 197 200 199 199 205 206 208 211 212 218 220 218 219 220 221 221 222 226 230 232 233 235 236 236
173 169 167 162 164 161 168 171 162 152 158 174 151 143 149 213 281 316 259 212 197 195 201 203 206 211 213 213 216 219 218 218 220 222 221 221 225 227 230 233 237 239 242
173 173 169 166 168 168 173 180 168 159 150 160 171 165 164 158 158 269 313 286 226 206 204 204 206 211 212 212 215 217 218 217 218 220 220 222 224 225 226 230 235 240 243
176 176 173 168 171 175 179 176 165 163 160 161 166 165 140 128 138 153 234 284 290 245 218 210 202 206 211 212 213 216 216 215 217 219 221 221 222 224 227 233 239 242 245
179 178 176 174 175 177 181 181 174 171 171 165 164 162 165 169 186 170 192 229 245 262 244 227 213 208 208 210 213 215 214 215 216 218 221 223 224 227 230 237 243 246 249
181 185 181 178 178 182 182 177 174 177 173 169 176 179 182 192 177 168 168 199 235 274 283 256 229 218 215 210 213 214 213 214 216 219 222 224 227 230 234 239 244 246 248
184 181 176 177 180 179 183 176 177 182 175 176 184 180 181 198 182 178 172 162 183 294 294 272 269 227 218 207 211 210 212 216 219 222 224 227 230 234 238 240 243 245 248
181 178 177 178 183 183 180 171 178 185 177 184 185 182 189 202 190 190 175 166 162 199 251 260 260 247 219 212 213 209 211 217 221 225 229 232 235 237 240 242 244 246 249
181 177 180 181 182 180 177 173 176 186 182 188 183 180 196 204 186 172 174 176 170 175 216 247 242 250 217 216 216 210 216 221 225 229 233 237 240 242 244 246 247 249 250
179 179 181 181 181 180 179 178 185 185 187 193 192 189 204 193 181 182 172 169 174 165 199 261 259 259 213 218 210 216 224 226 232 236 238 242 244 245 247 248 249 250 251
180 180 178 180 184 184 183 184 191 192 192 196 200 195 210 202 197 198 192 204 200 188 183 231 265 249 231 225 216 221 230 234 237 244 245 247 248 250 251 252 252 253 254
179 179 177 183 187 188 189 192 191 195 198 201 200 201 209 199 209 209 205 209 216 210 185 201 247 254 255 246 229 247 249 250 250 251 251 251 253 254 254 255 255 255 256
179 182 183 187 189 190 192 195 196 199 202 207 207 206 206 203 208 209 211 213 211 210 204 215 247 266 265 261 214 244 266 258 258 259 259 257 257 258 258 259 259 259 258
186 183 182 187 189 193 200 197 199 202 201 208 214 216 217 213 211 209 211 208 203 207 215 226 246 262 268 265 242 236 246 263 268 252 262 267 263 262 264 262 260 260 259
183 182 186 189 193 203 201 196 196 200 197 205 217 224 227 222 223 219 219 211 199 202 212 218 233 239 248 242 241 239 241 257 276 260 236 265 251 257 261 260 260 261 260
184 184 188 188 196 204 200 195 198 198 201 209 212 216 225 224 217 220 226 225 223 222 211 206 223 234 237 230 223 241 236 233 245 249 225 267 261 260 263 265 266 266 265
184 189 190 189 187 200 199 200 201 201 207 212 211 210 216 230 226 215 223 230 235 237 229 224 227 237 236 230 220 226 234 250 263 258 211 251 263 261 270 271 271 268 266
175 176 174 176 176 192 198 199 192 193 207 219 220 217 214 224 239 224 219 234 248 256 250 243 242 249 253 251 239 234 250 254 271 269 217 226 258 264 267 266 269 269 268
165 159 154 157 165 178 186 187 187 187 199 218 231 230 219 222 241 229 219 229 247 260 272 281 269 270 263 261 248 227 232 243 255 269 244 221 254 264 282 269 266 271 272
Height
1556 1559 1561 1563 1565 1567 1568 1570 1571 1573 1573 1574 1575 1576 1577 1578 1579 1580 1580 1581 1581 1582 1583 1583 1584 1584 1585 1585 1586 1586 1587 1587 1588 1588 1589 1589 1590 1590 1591 1591 1591 1592 1592
1556 1558 1560 1563 1565 1567 1569 1570 1572 1573 1574 1575 1576 1577 1578 1578 1579 1580 1581 1581 1582 1582 1583 1583 1584 1585 1585 1586 1586 1587 1587 1588 1588 1589 1589 1589 1590 1590 1591 1591 1592 1592 1592
1556 1558 1560 1562 1564 1566 1568 1570 1571 1573 1574 1575 1576 1577 1578 1579 1580 1580 1581 1582 1582 1583 1583 1584 1584 1585 1585 1586 1586 1587 1587 1587 1588 1588 1589 1589 1590 1590 1591 1591 1591 1592 1592
1555 1557 1560 1562 1564 1566 1567 1569 1571 1572 1574 1575 1576 1577 1578 1579 1580 1580 1581 1582 1582 1583 1583 1583 1584 1584 1585 1585 1586 1586 1587 1587 1587 1588 1588 1589 1589 1590 1590 1590 1591 1591 1592
1554 1557 1559 1561 1563 1565 1567 1569 1570 1572 1573 1574 1576 1577 1578 1578 1579 1580 1581 1582 1582 1583 1583 1583 1583 1584 1584 1585 1585 1585 1586 1586 1586 1587 1587 1587 1588 1588 1589 1589 1590 1590 1590
1553 1555 1558 1560 1562 1564 1566 1568 1569 1571 1573 1574 1575 1576 1577 1578 1579 1579 1580 1581 1582 1582 1582 1583 1583 1583 1584 1584 1584 1584 1585 1585 1585 1585 1586 1586 1586 1587 1587 1588 1588 1588 1589
1551 1553 1556 1558 1560 1562 1564 1566 1568 1570 1571 1573 1574 1575 1576 1577 1578 1578 1579 1580 1580 1581 1582 1582 1582 1583 1583 1583 1583 1583 1583 1583 1583 1584 1584 1584 1584 1585 1585 1586 1586 1586 1587
1549 1552 1554 1556 1558 1560 1563 1564 1566 1568 1570 1571 1573 1574 1575 1577 1576 1577 1578 1578 1579 1580 1580 1581 1581 1582 1582 1582 1582 1582 1582 1582 1582 1582 1582 1582 1582 1583 1583 1583 1583 1584 1584
1547 1549 1552 1554 1556 1558 1560 1562 1564 1566 1568 1570 1571 1573 1573 1574 1575 1576 1576 1577 1577 1578 1579 1579 1580 1580 1580 1581 1581 1581 1581 1581 1580 1581 1581 1580 1580 1580 1580 1580 1581 1581 1581
1544 1547 1550 1552 1554 1556 1558 1560 1562 1564 1566 1568 1569 1571 1572 1572 1573 1574 1575 1575 1576 1576 1577 1577 1578 1578 1579 1579 1579 1579 1579 1579 1579 1579 1579 1578 1578 1578 1578 1578 1578 1578 1578
1541 1544 1547 1550 1552 1554 1556 1558 1560 1562 1564 1565 1567 1568 1569 1570 1571 1572 1572 1573 1574 1574 1575 1575 1576 1576 1576 1577 1577 1577 1577 1577 1577 1577 1577 1576 1576 1576 1576 1575 1575 1575 1575
1538 1542 1545 1547 1549 1551 1554 1556 1558 1559 1561 1563 1565 1566 1567 1568 1569 1570 1570 1571 1571 1572 1573 1573 1574 1574 1574 1575 1575 1575 1576 1576 1576 1575 1575 1574 1574 1574 1573 1573 1573 1572 1572
1534 1538 1541 1544 1547 1549 1551 1553 1555 1557 1558 1560 1562 1564 1565 1566 1567 1568 1569 1569 1569 1570 1570 1571 1571 1572 1572 1572 1573 1573 1573 1573 1573 1573 1573 1572 1572 1571 1571 1570 1570 1570 1569
1531 1535 1538 1541 1544 1546 1548 1550 1552 1554 1556 1557 1559 1561 1563 1564 1565 1566 1566 1567 1567 1567 1567 1568 1568 1569 1569 1570 1570 1570 1571 1571 1571 1570 1570 1569 1569 1568 1568 1568 1567 1567 1566
1529 1533 1535 1538 1540 1543 1545 1547 1549 1551 1553 1554 1556 1558 1560 1561 1562 1563 1564 1564 1565 1564 1564 1565 1565 1566 1566 1567 1567 1568 1568 1568 1568 1568 1567 1567 1566 1565 1565 1564 1564 1563 1563
1526 1529 1532 1535 1537 1540 1542 1544 1546 1548 1550 1552 1553 1555 1557 1558 1559 1560 1561 1561 1562 1562 1562 1562 1562 1563 1564 1564 1564 1565 1565 1565 1565 1564 1564 1563 1563 1562 1562 1561 1560 1560 1559
1523 1526 1529 1532 1535 1537 1539 1541 1543 1545 1547 1549 1550 1552 1553 1555 1556 1557 1558 1558 1558 1559 1559 1559 1560 1560 1560 1561 1561 1561 1561 1561 1561 1561 1560 1560 1559 1559 1558 1557 1556 1556 1555
1520 1523 1526 1529 1532 1534 1536 1538 1540 1542 1544 1546 1547 1549 1550 1551 1552 1553 1554 1555 1555 1555 1556 1555 1556 1557 1557 1557 1558 1557 1557 1557 1557 1557 1556 1556 1555 1554 1554 1553 1552 1551 1550
1517 1521 1524 1526 1529 1531 1534 1536 1538 1539 1541 1543 1544 1545 1547 1548 1549 1550 1550 1551 1552 1552 1552 1552 1552 1553 1553 1554 1554 1554 1553 1553 1553 1552 1552 1551 1550 1550 1549 1548 1547 1547 1546
1514 1518 1521 1524 1526 1528 1531 1533 1535 1537 1538 1540 1541 1542 1543 1544 1545 1546 1547 1547 1548 1549 1549 1549 1549 1549 1549 1550 1549 1549 1549 1548 1548 1548 1547 1546 1545 1544 1543 1543 1542 1541 1540
1512 1515 1518 1521 1523 1526 1528 1530 1532 1533 1535 1536 1538 1539 1540 1541 1542 1542 1543 1543 1544 1544 1545 1545 1545 1545 1545 1545 1545 1544 1543 1543 1542 1542 1541 1540 1539 1538 1537 1536 1536 1535 1534
1510 1513 1515 1518 1520 1522 1524 1526 1529 1530 1531 1532 1534 1535 1536 1537 1538 1539 1539 1540 1540 1540 1540 1541 1540 1540 1540 1540 1540 1539 1538 1537 1536 1537 1535 1534 1533 1532 1531 1530 1529 1528 1527
1507 1510 1512 1514 1517 1519 1521 1523 1525 1526 1527 1529 1530 1531 1532 1533 1534 1535 1535 1535 1535 1536 1536 1536 1536 1535 1536 1535 1535 1534 1533 1532 1530 1530 1529 1526 1526 1525 1524 1523 1522 1521 1520
1504 1507 1509 1512 1514 1516 1518 1519 1521 1522 1523 1525 1526 1527 1528 1529 1530 1530 1531 1531 1531 1531 1531 1531 1531 1531 1531 1530 1529 1529 1527 1526 1524 1524 1523 1520 1518 1517 1517 1516 1515 1513 1512
1502 1504 1506 1508 1510 1512 1514 1516 1517 1518 1519 1520 1521 1523 1523 1524 1525 1526 1526 1526 1526 1526 1526 1526 1525 1525 1525 1524 1523 1522 1521 1519 1517 1516 1516 1514 1511 1509 1508 1507 1507 1506 1505
1498 1501 1503 1505 1507 1508 1510 1512 1513 1514 1515 1516 1517 1518 1518 1519 1520 1520 1520 1520 1520 1520 1520 1519 1519 1519 1518 1518 1517 1516 1515 1513 1511 1509 1508 1507 1505 1503 1499 1498 1498 1498 1497